TOURFACTS.DK  
Stats and Facts from Tour de France.

Tour de France 2019 starts in 323 days
  Riders   Stages   Teams   Summits   Yearly  


 
Search by year

After 2018 - Stage 21:
 15000 starters.
  5165 different riders.
  638 teams.
  2253 stages.
  456 restdays.
  442940.60 km.
  5684 abandonnees.


Top 3
GC
Geraint Thomas83:17:13
Tom Dumoulin83:19:04
Christopher Froome83:19:37
Climb
Julian Alaphilippe170 pt.
Warren Barguil91 pt.
Rafal Majka76 pt.
Sprint
Peter Sagan477 pt.
Alexander Kristoff246 pt.
Arnaud Démare203 pt.
Youth
Pierre-Roger Latou..83:39:26
Egan Bernal83:45:05
Guillaume Martin84:01:31
Facts from Tour de France 1949
  |   Stages.  |   Stage winners.  |   Days in yellow  |   Average speed.  |   Route.  |   Teams.  |   All riders.  |   Rookies.  |  

  |   Withdrawls.  |   GC.  |   Polka  |   Green  |   White  |   Summits. (In tour)  |   Miscellaneous.  |  

Stage 2 on 01 - 07 - 1949
         Owning:    Roger Lambrecht    
Pick a stage:  1 2 3 4 5 6 7 8 9 10 11 12 13 14 15 16 17 18 19 20 21
  ReimsBruxelles | Dist: 273.00 km.

Average speed for all riders in stage:  31,081 km./hr.
    Place:Name:Team:Time:Km/h:
1
BELRoger LambrechtBELBelgium08:37:58  +  00:00:00=31,624 
2
FRAJacques MarinelliFRAIle De France08:37:58  +  00:00:00=31,624 
3
FRALucien TeisseireFRAFrance08:39:14  +  00:01:16=31,547 
44 BELMarcel KintBELBelgium08:39:17  +  00:01:19=31,543 
55 ITAMario RicciITAItaly08:39:17  +  00:01:19=31,543 
66 BELStan OckersBELBelgium08:39:31  +  00:01:33=31,529 
77 BELLeon JomauxBELBelgium08:40:40  +  00:02:42=31,460 
88 FRAEloi TassinFRAWest-North08:40:43  +  00:02:45=31,457 
99 SUIFerdi KüblerCHESwitzerland08:41:15  +  00:03:17=31,424 
1010 ITAGino BartaliITAItaly08:41:15  +  00:03:17=31,424 
1111 ITAFausto CoppiITAItaly08:41:15  +  00:03:17=31,424 
1212 FRAJean RobicFRAWest-North08:41:15  +  00:03:17=31,424 
1313 ITASylvio PedroniITACadetti Italiens08:41:15  +  00:03:17=31,424 
1414 BELMarcel DupontBELAiglons Belges08:41:15  +  00:03:17=31,424 
1515 FRAPierre CoganFRAWest-North08:41:15  +  00:03:17=31,424 
1616 FRARoger PontetFRAWest-North08:41:15  +  00:03:17=31,424 
1717 GEREdouard KlabinskiFRAWest-North08:41:15  +  00:03:17=31,424 
1818 ITAFermo CamelliniFRASouth-East08:41:15  +  00:03:17=31,424 
1919 BELJacques GeusBELAiglons Belges08:41:43  +  00:03:45=31,396 
2020 FRAJean-Marie GoasmatFRAWest-North08:41:43  +  00:03:45=31,396 
2121 ITAGino SciardisITAItaly08:42:03  +  00:04:05=31,376 
2222 BELRik Van SteenbergenBELBelgium08:42:03  +  00:04:05=31,376 
2323 ITAGiuseppe CeramiITACadetti Italiens08:42:03  +  00:04:05=31,376 
2424 FRABernard GauthierFRAFrance08:42:03  +  00:04:05=31,376 
2525 FRAGuy LapébieFRAFrance08:42:03  +  00:04:05=31,376 
2626 BELEdward Van DijckBELBelgium08:42:03  +  00:04:05=31,376 
2727 BELRaymond ImpanisBELBelgium08:42:03  +  00:04:05=31,376 
2828 BELNorbert CallensBELBelgium08:42:03  +  00:04:05=31,376 
2929 FRAGeorges RamouluxFRACenter-South West08:42:03  +  00:04:05=31,376 
3030 FRAEmile IdéeFRAIle De France08:42:03  +  00:04:05=31,376 
3131 FRAMarcel DussaultFRACenter-South West08:42:03  +  00:04:05=31,376 
3232 LUXJean GoldschmitLUXLuxembourg08:42:03  +  00:04:05=31,376 
3333 FRAJean ReyFRASouth-East08:42:03  +  00:04:05=31,376 
3434 FRADominique ForliniFRAIle De France08:42:03  +  00:04:05=31,376 
3535 BELMarcel HendrickxBELAiglons Belges08:42:03  +  00:04:05=31,376 
3636 FRALouis CaputFRAIle De France08:42:03  +  00:04:05=31,376 
3737 ITAAlfredo MartiniITACadetti Italiens08:42:03  +  00:04:05=31,376 
3838 ITAVittorio MagniITACadetti Italiens08:42:03  +  00:04:05=31,376 
3939 BELJoseph VerhaertBELAiglons Belges08:42:03  +  00:04:05=31,376 
4040 FRAAndré BruléFRAIle De France08:42:03  +  00:04:05=31,376 
4141 ITAÉdouard FachleitnerFRASouth-East08:42:03  +  00:04:05=31,376 
4242 FRARoger LevequeFRACenter-South West08:42:03  +  00:04:05=31,376 
4343 BELLucien MaelfaitFRAWest-North08:42:03  +  00:04:05=31,376 
4444 FRAAntonin RollandFRASouth-East08:42:03  +  00:04:05=31,376 
4545 FRARoger Le NizerhyFRAWest-North08:42:03  +  00:04:05=31,376 
4646 FRALouis ThiétardFRAIle De France08:42:03  +  00:04:05=31,376 
4747 ITAGiuseppe TaccaFRAIle De France08:42:03  +  00:04:05=31,376 
4848 FRAEdouard MullerFRAIle De France08:42:03  +  00:04:05=31,376 
4949 FRAPierre MolinerisFRASouth-East08:42:03  +  00:04:05=31,376 
5050 BELDésiré KeteleerBELBelgium08:42:03  +  00:04:05=31,376 
5151 SUIErnst StettlerCHESwitzerland08:42:03  +  00:04:05=31,376 
5252 SUIGeorges AeschlimannCHESwitzerland08:42:03  +  00:04:05=31,376 
5353 LUXJean DiederichLUXLuxembourg08:42:03  +  00:04:05=31,376 
5454 ITALuciano PezziITAItaly08:42:03  +  00:04:05=31,376 
5555 LUXJean KirchenLUXLuxembourg08:42:03  +  00:04:05=31,376 
5656 FRALouis DeprezFRAFrance08:42:03  +  00:04:05=31,376 
5757 ITAEttore MilanoITAItaly08:42:03  +  00:04:05=31,376 
5858 SUIGottfried WeilenmannCHESwitzerland08:42:03  +  00:04:05=31,376 
5959 FRARené ViettoFRAFrance08:42:03  +  00:04:05=31,376 
6060 BELBriek SchotteBELBelgium08:42:03  +  00:04:05=31,376 
6161 FRALouison BobetFRAFrance08:42:03  +  00:04:05=31,376 
6262 ITASerifano BiagioniITAItaly08:42:03  +  00:04:05=31,376 
6363 FRARobert ChapatteFRAFrance08:42:03  +  00:04:05=31,376 
6464 BELRoger GhyselinckBELBelgium08:42:35  +  00:04:37=31,344 
6565 SUIPierre BrambillaFRASouth-East08:42:35  +  00:04:37=31,344 
6666 ITANello LaurediFRASouth-East08:42:58  +  00:05:00=31,321 
6767 FRAJean-Apotre LazaridesFRAFrance08:43:36  +  00:05:38=31,283 
6868 FRAMaurice DiotFRAFrance08:43:36  +  00:05:38=31,283 
6969 FRARaoul RemyFRASouth-East08:43:36  +  00:05:38=31,283 
7070 ESPDalmácio LangaricaESPSpain08:45:36  +  00:07:38=31,164 
7171 LUXRené BieverLUXLuxembourg08:47:33  +  00:09:35=31,049 
7272 ITAAttilio RedolfiFRAIle De France08:49:08  +  00:11:10=30,956 
7373 BELFlorent MathieuBELBelgium08:49:08  +  00:11:10=30,956 
7474 ITAAngelo BrignoleITAItaly08:49:08  +  00:11:10=30,956 
7575 FRAGeorges MartinFRASouth-East08:49:08  +  00:11:10=30,956 
7676 GERCésar MarcelakFRAWest-North08:49:08  +  00:11:10=30,956 
7777 FRAPaul GiguetFRASouth-East08:49:08  +  00:11:10=30,956 
7878 FRAAndre MahéFRAWest-North08:49:08  +  00:11:10=30,956 
7979 ITABruno GaronziFRACenter-South West08:49:08  +  00:11:10=30,956 
8080 MARCustodio Dos ReisFRACenter-South West08:49:08  +  00:11:10=30,956 
8181 ITAGuido De SantiITAItaly08:49:08  +  00:11:10=30,956 
8282 FRAFrançois PersonFRAWest-North08:49:08  +  00:11:10=30,956 
8383 ITAArmando PeverelliITACadetti Italiens08:49:08  +  00:11:10=30,956 
8484 FRARaphaël GeminianiFRAFrance08:49:08  +  00:11:10=30,956 
8585 NEDWim De RuyterNLDHolland08:49:08  +  00:11:10=30,956 
8686 FRARaymond LucasFRAIle De France08:49:08  +  00:11:10=30,956 
8787 NEDFrans PauwelsNLDHolland08:49:08  +  00:11:10=30,956 
8888 ITAGiuseppe AusendaITACadetti Italiens08:49:08  +  00:11:10=30,956 
8989 ITAAdolphe DeleddaFRASouth-East08:49:08  +  00:11:10=30,956 
9090 FRAAnge Le StratFRAWest-North08:49:08  +  00:11:10=30,956 
9191 ESPBernardo RuízESPSpain08:51:12  +  00:13:14=30,836 
9292 ITAGiovanni CorrieriITAItaly08:51:12  +  00:13:14=30,836 
9393 FRACamille DanguillaumeFRAFrance08:51:12  +  00:13:14=30,836 
9494 FRAJean BlancFRACenter-South West08:51:12  +  00:13:14=30,836 
9595 ITAVincenzo RosselloITAItaly08:51:12  +  00:13:14=30,836 
9696 FRALucien LazaridesFRAFrance08:51:12  +  00:13:14=30,836 
9797 FRAGeorges GuillierFRAIle De France08:51:12  +  00:13:14=30,836 
9898 ESPEmilio RodriguezESPSpain08:53:13  +  00:15:15=30,719 
9999 ESPJulián BerrenderoESPSpain08:53:13  +  00:15:15=30,719 
100100 ITABruno PasquiniITAItaly08:53:13  +  00:15:15=30,719 
101101 FRAPaul PineauFRACenter-South West08:53:13  +  00:15:15=30,719 
102102 ESPJosé SerraESPSpain08:53:13  +  00:15:15=30,719 
103103 FRARobert DesbatsFRACenter-South West08:58:50  +  00:20:52=30,399 
104104 FRAHenri MassalFRACenter-South West08:58:50  +  00:20:52=30,399 
105105 BELJean BreuerBELAiglons Belges08:58:50  +  00:20:52=30,399 
106106 FRAAlbert DolhatsFRACenter-South West08:58:50  +  00:20:52=30,399 
107107 SUIRoger AeschlimannCHESwitzerland09:00:38  +  00:22:40=30,298 
108108 SUIHans HutmacherCHESwitzerland09:00:38  +  00:22:40=30,298 
109109 NEDJan LambrichsNLDHolland09:00:54  +  00:22:56=30,283 
110110 NEDHuub SijenNLDHolland09:00:54  +  00:22:56=30,283 
111111 NEDAndré De KorverNLDHolland09:03:17  +  00:25:19=30,150 
112112 BELMarcel De MulderBELAiglons Belges09:17:04  +  00:39:06=29,404 
113113 LUXMarcel ErnzerLUXLuxembourg09:41:46  +  01:03:48=28,156 
114114 NEDHenk de HoogNLDHolland09:50:35  +  01:12:37=27,735 

Withdrawls: 4
 
Rider
Team
Reason
75  FRARobert DorgebrayFRAIle De FranceDid not finish
98  FRARoger BuchonnetFRACenter-South WestDid not finish
104  PORAntoine GomezFRACenter-South WestDid not finish
117  ITAPaul NeriFRASouth-EastDid not finish
Todays birthdays.

1874  Achille Colas
1895  Lucien Meunier
1902  Lazare Venot
1915  Albert Gijsen
1924  Marcel Zelasco
1930  Juan Campillo
1931  Jean-Claude Skerl
1934  Jean Selic
1935  Arnaldo Pambianco
1955  Mario Beccia
1956  Daniel Willems
1957  Dominique Sanders
1959  Marc Sergeant
1960  Éric Caritoux
1963  Jelle Nijdam
1971  Arnaud Prétot
1980  Piet Rooijakkers